EW1895 Weather Reports


time (UTC)temp
C
wind
direction
speed
KPH
gust
KPH
rain 1hr
cm
rain 24hr
cm
rain mn
cm
humidity
%
barometer
mb
20260507064532 18 167 0.0 0.0 0.00 0.00 0.00 92 1009.8
20260507063030 18 167 0.0 0.0 0.00 0.00 0.00 91 1009.3
20260507061530 18 167 0.0 0.0 0.00 0.00 0.00 90 1009.3
20260507060043 18 167 0.0 0.0 0.00 0.00 0.00 90 1008.9
20260507054538 18 167 0.0 0.0 0.00 0.00 0.00 89 1009.0
20260507053026 18 167 0.0 0.0 0.00 0.00 0.00 89 1008.9
20260507051528 18 167 0.0 0.0 0.00 0.00 0.00 89 1009.3
20260507050026 18 159 0.0 0.0 0.00 0.00 0.00 90 1009.6
20260507044544 18 159 0.0 0.0 0.00 0.00 0.00 90 1009.7
20260507043025 18 200 0.0 0.0 0.00 0.00 0.00 90 1010.1
20260507041524 18 200 0.0 0.0 0.00 0.00 0.00 90 1010.0
20260507040031 18 200 0.0 0.0 0.00 0.00 0.00 90 1009.8
20260507034523 18 200 0.0 0.0 0.00 0.00 0.00 90 1009.9
20260507033022 18 200 0.0 0.0 0.00 0.00 0.00 90 1010.2
20260507031521 18 200 0.0 0.0 0.00 0.00 0.00 90 1009.9
20260507030019 18 200 0.0 0.0 0.00 0.00 0.00 89 1009.9
20260507024519 18 200 0.0 0.0 0.00 0.00 0.00 89 1009.4
20260507023018 18 200 0.0 0.0 0.00 0.00 0.00 89 1009.7
20260507021520 18 200 0.0 0.0 0.00 0.00 0.00 88 1009.8
20260507020014 18 200 0.0 0.0 0.00 0.00 0.00 87 1010.0
20260507014514 18 200 0.0 0.0 0.00 0.00 0.00 87 1010.0
20260507013014 18 200 0.0 0.0 0.00 0.00 0.00 87 1010.1
20260507011512 18 200 0.0 0.0 0.00 0.00 0.00 87 1010.1
20260507010011 18 200 0.0 0.0 0.00 0.00 0.00 86 1009.9
20260507004509 18 200 0.0 0.0 0.00 0.00 0.00 86 1009.5
20260507003006 19 200 0.0 0.0 0.00 0.00 0.00 85 1009.9
20260507001512 19 139 0.0 1.6 0.00 0.00 0.00 83 1010.0
20260507000011 19 71 0.0 0.0 0.00 0.00 0.00 82 1009.8
20260506234504 20 80 0.0 0.0 0.00 0.00 0.00 82 1009.7
20260506233104 20 284 0.0 6.4 0.00 0.00 0.00 81 1009.5
20260506231559 20 261 0.0 1.6 0.00 0.00 0.00 80 1009.4
20260506230056 20 212 0.0 1.6 0.00 0.00 0.00 80 1009.2
20260506224603 21 248 0.0 3.2 0.00 0.00 0.00 79 1009.4
20260506223053 21 221 0.0 12.9 0.00 0.00 0.00 78 1009.5
20260506221554 21 242 0.0 8.0 0.00 0.00 0.00 78 1009.6
20260506220051 21 235 0.0 3.2 0.00 0.00 0.00 78 1009.5
20260506214606 21 290 0.0 3.2 0.00 0.00 0.00 77 1009.2
20260506213049 21 176 0.0 8.0 0.00 0.00 0.00 79 1009.7
20260506211649 21 19 0.0 4.8 0.00 0.00 0.00 77 1009.8
20260506210052 21 209 0.0 9.7 0.00 0.00 0.00 77 1009.6
20260506204556 21 209 0.0 8.0 0.00 0.00 0.00 77 1009.5
20260506203049 21 126 0.0 0.0 0.00 0.00 0.00 82 1009.5
20260506201542 20 118 0.0 3.2 0.00 0.00 0.00 83 1009.5
20260506200040 20 134 0.0 3.2 0.00 0.00 0.00 83 1009.4
20260506194553 20 130 0.0 1.6 0.00 0.00 0.00 83 1009.7
20260506193035 19 159 0.0 0.0 0.00 0.00 0.00 83 1009.6
20260506191535 19 175 0.0 3.2 0.00 0.00 0.00 85 1009.8
20260506190029 18 175 0.0 3.2 0.00 0.00 0.00 87 1010.2
20260506184530 18 180 0.0 3.2 0.00 0.00 0.00 86 1010.5
20260506183022 18 229 0.0 6.4 0.00 0.00 0.00 88 1010.5
20260506180036 18 263 1.6 8.0 0.00 0.00 0.00 87 1010.5
20260506174533 18 205 1.6 9.7 0.00 0.00 0.00 89 1010.9
20260506173030 17 221 1.6 8.0 0.00 0.00 0.00 90 1010.8
20260506171543 17 13 0.0 8.0 0.00 0.00 0.00 92 1010.9
20260506170037 17 169 1.6 9.7 0.00 0.00 0.00 91 1010.6
20260506164533 17 249 0.0 4.8 0.00 0.00 0.00 93 1011.1
20260506163029 17 133 1.6 11.3 0.00 0.00 0.00 93 1011.2
20260506161527 17 216 0.0 8.0 0.00 0.00 0.00 93 1011.5
20260506160026 16 120 0.0 8.0 0.00 0.00 0.00 93 1011.2
20260506154525 16 200 0.0 0.0 0.00 0.00 0.00 94 1011.1
20260506153023 16 200 0.0 4.8 0.00 0.00 0.00 94 1011.5
20260506151531 16 201 0.0 8.0 0.00 0.00 0.00 94 1011.5
20260506150023 16 214 0.0 0.0 0.00 0.00 0.00 93 1011.7
20260506144522 16 188 0.0 0.0 0.00 0.00 0.00 93 1012.2
20260506143021 16 215 0.0 4.8 0.00 0.00 0.00 92 1012.2
20260506141520 16 203 0.0 3.2 0.00 0.00 0.00 92 1012.0
20260506140026 16 249 0.0 4.8 0.00 0.00 0.00 92 1011.9
20260506134518 16 153 0.0 0.0 0.00 0.00 0.00 89 1012.0
20260506133036 16 130 0.0 3.2 0.00 0.00 0.00 88 1011.9
20260506131523 16 186 0.0 3.2 0.00 0.00 0.00 88 1011.8
20260506130017 16 238 0.0 3.2 0.00 0.00 0.00 88 1011.7
20260506124516 16 192 0.0 0.0 0.00 0.00 0.00 86 1011.7
20260506123013 17 136 0.0 1.6 0.00 0.00 0.00 82 1011.8
20260506121511 17 116 0.0 1.6 0.00 0.00 0.00 77 1011.5
20260506120018 17 155 0.0 3.2 0.00 0.00 0.00 75 1011.7
20260506114511 17 219 0.0 6.4 0.00 0.00 0.00 75 1011.6
20260506113011 17 263 1.6 8.0 0.00 0.00 0.00 74 1011.5
20260506111510 17 300 0.0 4.8 0.00 0.00 0.00 75 1011.5
20260506110009 17 116 0.0 1.6 0.00 0.00 0.00 75 1011.3
20260506104508 17 126 0.0 3.2 0.00 0.00 0.00 75 1011.3
20260506103009 17 234 0.0 3.2 0.00 0.00 0.00 75 1011.6
20260506101508 17 222 0.0 3.2 0.00 0.00 0.00 75 1011.5
20260506100014 17 207 0.0 6.4 0.00 0.00 0.00 76 1011.5
20260506094507 17 173 0.0 1.6 0.00 0.00 0.00 76 1011.5
20260506093006 17 178 0.0 6.4 0.00 0.00 0.00 75 1011.3
20260506091504 17 288 0.0 4.8 0.00 0.00 0.00 75 1011.4
20260506090004 17 244 0.0 8.0 0.00 0.00 0.00 75 1011.4
20260506084504 17 268 0.0 6.4 0.00 0.00 0.00 74 1011.5
20260506083002 17 230 0.0 6.4 0.00 0.00 0.00 74 1011.5
20260506081501 17 147 0.0 8.0 0.00 0.00 0.00 73 1011.4
20260506073056 17 223 0.0 4.8 0.00 0.00 0.00 71 1011.8
20260506071555 18 188 0.0 3.2 0.00 0.00 0.00 70 1011.7